Temp
16 15 14 15 16 17 18 19 18 19 21 19 18 19 20 20 20 20 21 21 21 22 22 25 25 25 26 26 27 27 26 25 25 24 23 23 23 22 21 21 20 20 19 17
15 14 17 19 19 18 18 17 17 18 20 18 17 17 18 19 20 20 20 20 21 21 21 22 24 25 25 25 25 25 26 25 24 24 24 23 22 20 21 20 19 18 17 16
15 16 17 17 17 16 16 16 16 16 17 17 16 16 18 21 20 20 21 21 21 21 21 21 21 23 24 24 24 24 25 25 24 23 23 22 20 18 17 17 16 15 15 15
15 17 17 16 16 16 15 17 17 17 15 14 16 13 16 19 20 21 19 19 19 20 20 21 21 21 23 24 24 24 24 25 25 24 22 21 18 15 15 15 14 14 13 14
15 16 15 15 16 17 16 16 15 15 14 13 14 12 15 19 19 20 20 20 21 19 19 19 19 21 23 23 23 24 24 24 24 23 22 19 17 15 14 13 13 13 12 12
16 17 16 16 16 16 15 15 15 14 14 11 13 14 15 19 20 20 20 20 20 20 20 19 20 22 22 23 23 22 23 24 23 22 21 18 16 14 12 11 11 11 11 11
14 14 15 16 15 15 15 13 10 11 12 10 18 15 16 19 20 20 20 20 21 21 20 19 19 17 20 22 22 22 22 22 23 21 20 17 16 15 12 10 9 9 9 10
12 13 14 14 14 14 13 13 10 12 12 14 16 15 16 20 20 21 21 21 20 21 19 17 17 16 18 20 21 22 21 21 21 20 18 16 16 13 11 10 9 9 9 10
13 14 16 15 15 15 13 11 14 11 13 10 13 17 18 20 20 20 19 19 18 20 17 17 16 17 18 19 21 21 21 20 20 19 17 16 15 12 11 10 9 9 9 9
14 13 15 15 16 15 14 15 11 10 9 11 14 15 17 19 19 19 18 18 18 17 18 16 15 15 17 19 21 21 20 20 19 18 17 14 13 12 10 10 9 9 9 9
15 14 12 12 12 13 12 12 12 12 12 12 12 14 19 17 18 17 17 19 18 17 16 16 15 16 16 18 20 20 19 19 18 17 13 12 12 11 10 9 9 9 9 9
15 13 9 11 14 14 14 13 12 10 11 12 11 13 18 18 18 17 17 17 16 17 16 16 15 15 15 17 19 19 19 18 16 13 11 11 10 9 9 9 8 9 9 8
14 11 9 11 13 14 13 14 14 13 11 11 11 13 18 17 17 18 17 16 17 17 16 15 14 13 13 16 17 18 17 15 12 11 10 9 8 8 8 8 8 8 8 7
14 13 10 10 12 12 10 12 13 12 11 12 12 13 15 16 16 17 16 17 16 16 17 13 13 13 13 16 15 15 12 12 10 9 8 8 7 8 7 7 7 7 7 7
13 9 11 11 12 11 11 12 12 10 11 11 12 13 14 14 13 14 14 16 16 16 17 13 13 12 13 14 13 11 11 10 8 7 7 7 7 7 7 7 7 7 6 6
13 9 10 9 12 12 11 13 14 14 12 12 12 12 14 14 14 14 13 13 13 15 15 12 12 13 12 11 10 9 9 9 8 7 7 7 6 6 6 5 5 4 5 5
12 10 10 10 13 13 13 15 14 12 13 13 12 12 13 14 14 12 11 11 11 11 12 13 12 12 10 9 8 8 8 8 8 7 6 6 5 5 4 4 4 4 4 4
11 11 11 10 12 13 16 15 15 14 14 14 14 14 13 13 12 10 9 9 10 10 11 12 11 9 8 7 7 6 6 6 5 4 4 3 3 2 2 3 3 2 3 3
11 11 11 11 12 14 16 17 16 14 14 14 14 14 13 12 10 9 8 9 11 11 12 11 8 7 6 6 5 4 4 3 2 1 1 2 1 1 1 2 3 4 3 3
11 11 11 11 11 13 16 16 16 14 14 15 14 13 13 12 12 9 8 8 9 8 8 7 6 6 5 4 4 3 3 2 1 1 1 1 1 1 3 4 3 3 3 3
11 11 11 11 12 13 16 16 15 14 14 15 14 13 11 11 8 8 8 7 7 7 7 6 5 4 4 3 3 2 2 1 0 0 1 2 4 4 3 3 3 3 2 2
12 11 11 11 11 11 17 17 16 15 15 14 14 13 10 9 7 7 7 7 5 5 4 4 3 3 2 3 2 1 1 0 1 1 3 3 3 3 2 2 2 2 2 2
13 15 14 13 13 16 16 17 16 13 12 12 12 12 9 8 7 7 7 6 6 7 5 3 3 3 2 2 1 1 2 3 3 3 2 2 2 2 2 2 2 1 1 1
15 15 14 15 17 17 16 15 13 12 11 10 11 11 11 7 7 7 6 5 6 6 7 6 5 4 3 3 3 2 2 2 2 2 1 2 2 1 1 1 1 1 1 1
14 15 14 14 15 16 15 13 12 11 10 10 11 11 9 8 7 6 6 5 6 6 6 5 3 2 2 2 2 2 2 3 2 2 2 2 1 1 1 1 0 -0 -0 -1
14 13 13 14 16 16 14 12 12 10 9 10 9 9 8 8 7 6 5 5 5 5 4 3 2 2 2 2 3 3 3 3 2 2 1 1 1 1 0 0 0 -0 -1 -1
Height
756 761 764 763 759 756 750 754 756 748 737 745 747 743 738 731 727 724 722 722 719 717 714 714 715 717 718 720 723 724 727 732 738 743 746 749 753 757 762 767 773 775 779 784
761 765 752 748 748 754 753 759 762 752 745 751 751 741 733 724 714 714 715 713 711 712 711 709 709 710 712 714 716 720 722 724 730 736 741 744 747 752 756 764 768 771 776 780
757 753 748 752 753 760 761 765 765 766 759 756 752 736 717 702 702 701 701 701 703 703 705 705 705 704 706 708 712 714 717 720 724 729 737 738 742 747 753 759 765 768 773 778
758 749 752 757 758 758 766 754 757 761 771 774 756 765 725 709 702 697 698 696 697 699 700 701 701 701 701 702 706 710 712 715 718 722 727 730 733 740 746 751 759 765 772 777
757 752 755 760 756 755 762 759 765 767 774 775 764 778 722 700 705 698 693 691 691 693 693 694 695 695 698 699 700 701 707 710 712 716 720 726 729 736 741 749 757 764 771 777
749 748 752 755 754 756 761 765 768 772 774 785 761 757 719 704 698 697 690 686 687 687 689 690 691 693 693 694 695 699 699 702 707 711 715 719 725 730 739 747 754 760 768 775
757 756 753 754 759 759 763 773 792 789 782 783 726 745 721 696 692 690 690 687 686 685 687 691 691 691 691 690 691 692 696 696 701 707 712 717 723 726 733 741 749 756 765 772
763 759 753 754 759 762 767 771 790 773 770 752 735 733 713 685 683 682 681 682 682 682 686 690 691 691 689 685 683 687 690 694 698 702 709 717 722 727 732 739 746 753 760 768
753 752 742 751 753 758 767 778 766 778 764 781 744 712 694 683 682 681 680 678 679 679 686 690 692 691 687 682 678 680 685 690 695 699 707 714 720 726 732 738 746 752 759 767
746 754 748 750 751 755 760 759 779 786 793 767 727 718 706 691 688 683 685 681 679 682 684 688 692 691 685 679 675 676 680 686 691 698 705 711 719 725 731 738 744 752 758 766
744 751 761 762 761 758 764 766 766 766 765 762 743 720 685 690 690 691 687 680 681 685 687 687 689 689 684 677 673 672 677 684 691 697 702 710 718 724 732 737 745 751 756 763
745 754 774 762 747 749 749 757 762 775 767 755 752 716 686 686 686 689 688 682 683 680 683 684 685 686 684 677 673 671 675 683 689 694 701 710 717 725 732 739 746 751 757 764
745 762 774 759 750 748 751 748 748 753 760 756 753 714 678 686 685 683 681 681 678 677 680 680 683 686 684 679 673 672 675 683 689 696 704 713 720 727 734 741 748 753 758 764
741 747 761 766 750 751 764 751 746 750 755 737 722 701 694 688 685 679 679 674 675 676 676 679 680 685 682 680 679 676 681 688 694 701 708 716 722 730 736 743 751 755 760 766
746 764 756 752 745 748 750 746 741 752 743 739 713 711 693 694 691 682 679 672 670 671 671 677 680 685 683 683 683 683 687 694 700 707 715 720 725 732 738 745 752 757 764 768
746 762 754 757 737 738 741 730 726 722 724 720 714 702 692 685 680 674 675 676 676 671 673 678 680 684 685 688 689 689 693 700 706 713 719 723 727 733 740 748 752 761 765 768
747 758 755 756 730 729 725 715 719 721 716 715 710 700 691 679 674 680 682 682 681 680 679 678 680 684 689 694 696 698 702 708 714 719 724 727 732 740 747 751 757 764 768 768
749 751 750 754 732 729 706 703 705 708 705 704 700 693 688 682 681 685 686 683 678 678 677 677 682 687 691 697 702 705 710 716 721 726 728 730 734 744 753 758 760 762 767 771
748 750 747 749 733 721 701 697 701 706 704 698 695 689 687 683 684 688 687 680 667 670 671 678 685 692 696 702 708 712 717 723 728 731 733 737 742 746 746 758 767 765 768 771
745 748 749 744 742 727 700 697 696 701 703 693 694 690 687 685 681 691 692 687 681 679 682 686 692 699 703 709 713 717 723 728 734 736 739 745 752 756 758 764 764 769 771 772
742 742 746 743 740 723 697 695 696 706 704 690 691 691 692 692 701 701 698 696 694 695 697 700 704 707 712 715 718 724 730 734 736 739 744 749 751 763 762 765 768 768 771 774
730 735 736 740 738 733 690 690 699 695 689 690 689 690 696 699 704 705 703 703 703 702 706 709 712 715 718 721 723 725 730 738 740 744 749 754 757 761 767 766 767 771 774 776
718 710 715 719 715 692 686 686 687 691 693 692 692 690 696 702 705 707 707 709 709 709 712 711 713 718 717 723 729 726 732 742 745 748 752 755 763 769 767 767 770 773 775 776
703 698 708 702 688 688 687 688 691 694 696 695 693 692 693 702 706 708 711 713 713 715 717 719 722 724 728 732 735 738 742 746 749 755 760 764 765 766 768 771 773 774 775 777
706 702 702 701 692 685 689 692 693 694 696 695 693 692 697 700 705 709 713 715 716 718 720 724 727 730 734 737 740 744 747 750 753 757 761 764 766 769 771 773 775 776 777 777
703 703 705 702 689 688 692 693 693 696 698 698 697 699 700 703 706 710 714 717 720 723 725 729 732 735 739 742 746 749 752 753 756 760 764 767 770 772 774 775 776 777 777 777
Wind_Speed
10 4 7 12 10 13 12 8 8 11 9 6 9 15 15 15 15 17 15 13 13 15 12 21 24 24 24 30 30 33 31 31 29 28 30 30 30 28 29 29 30 32 32 26
3 7 10 11 11 10 8 7 10 9 9 10 10 21 18 21 22 19 18 17 16 13 12 15 21 26 29 26 27 29 29 36 37 32 30 27 27 27 31 30 29 30 29 29
8 2 13 11 7 4 7 6 7 9 11 10 15 18 13 10 17 20 21 21 17 16 16 15 14 21 26 29 31 29 30 29 37 34 30 22 29 28 27 28 26 25 27 28
7 6 5 4 9 7 6 3 6 5 6 4 9 7 7 10 9 7 9 8 10 13 15 15 16 16 22 26 33 35 29 32 30 35 31 34 29 25 28 34 31 26 26 27
4 4 5 5 6 6 3 7 5 5 6 9 4 4 6 6 6 6 8 8 6 9 10 10 10 18 26 24 24 38 37 30 30 36 32 35 29 23 29 31 30 29 27 27
5 3 1 4 3 4 6 2 4 6 4 5 12 9 6 0 2 6 7 7 9 5 6 6 11 12 15 24 27 21 32 36 28 35 32 36 33 31 30 32 32 32 30 28
4 8 3 3 4 5 3 2 2 2 3 6 3 8 12 15 15 16 8 7 1 6 3 6 5 7 13 19 20 26 20 29 29 31 29 33 31 33 33 36 32 32 31 29
6 4 15 9 9 4 7 4 3 5 3 3 6 7 6 8 9 6 5 6 8 2 2 5 7 7 17 21 23 24 21 25 26 30 30 29 27 32 31 34 34 30 32 32
6 3 3 11 6 9 5 6 2 3 5 2 5 6 9 13 14 12 9 10 8 4 6 6 8 12 20 23 22 23 24 25 27 31 30 29 34 31 31 30 34 32 31 34
4 3 3 8 6 9 6 3 1 0 3 6 6 8 9 7 8 6 9 5 5 6 5 4 6 11 21 26 20 25 25 28 28 29 27 33 33 32 32 32 32 30 30 30
3 2 2 5 8 9 6 5 4 3 3 4 5 4 2 6 7 8 8 1 4 3 3 3 5 12 22 25 13 22 25 24 28 28 31 33 32 31 31 31 31 33 34 32
5 3 3 8 7 12 8 8 9 3 5 4 5 12 22 16 3 8 10 5 7 8 5 1 3 7 18 20 14 22 24 24 27 34 35 35 34 33 31 31 33 33 32 28
7 3 2 2 3 8 5 7 11 11 7 13 9 10 4 15 22 18 12 9 11 4 7 4 3 6 9 15 6 15 22 23 32 34 34 32 31 29 32 33 30 31 30 27
8 3 5 3 2 4 4 5 8 7 6 12 21 31 25 23 22 18 15 15 12 9 4 6 3 4 8 5 5 19 25 29 31 31 31 29 29 29 32 31 29 31 29 27
2 2 4 7 11 9 11 15 17 16 18 14 24 25 28 23 24 20 15 12 7 6 1 7 4 3 3 2 13 23 26 29 30 30 28 28 30 31 33 31 31 30 26 23
3 3 3 5 13 16 18 17 17 15 16 15 18 24 19 16 15 10 9 11 10 7 5 8 5 4 3 10 15 21 27 27 30 28 27 30 33 33 33 30 29 26 24 23
5 2 1 4 7 10 7 5 6 8 11 10 9 15 20 17 10 5 4 5 6 7 6 3 6 5 13 15 17 21 25 27 26 27 29 30 31 29 28 29 29 25 20 18
3 4 2 4 8 2 3 9 9 8 11 10 14 15 15 12 6 7 7 7 10 9 8 3 7 13 18 20 20 23 24 24 25 25 27 31 34 31 23 23 24 20 20 16
8 1 2 2 3 8 7 3 2 4 4 8 8 8 9 6 5 5 11 13 8 11 5 10 18 19 21 23 23 26 25 25 25 24 28 30 31 28 26 19 22 20 18 14
10 9 3 3 3 3 1 4 4 5 2 2 3 6 9 9 5 4 11 14 15 15 18 19 23 23 24 24 26 27 24 25 23 23 27 24 24 21 24 22 20 16 13 11
3 4 8 7 3 7 7 3 6 2 4 4 2 3 5 3 2 4 6 11 13 16 19 21 20 21 23 25 28 24 22 22 23 25 26 22 22 21 21 20 17 14 11 8
6 6 4 3 4 7 2 1 3 3 3 4 3 1 4 6 6 5 8 9 10 12 17 19 19 19 21 23 27 24 21 23 26 24 26 26 23 20 18 18 15 11 9 5
4 6 4 6 5 6 6 2 3 5 3 4 3 2 6 6 5 6 8 8 8 13 16 15 18 19 18 19 20 26 24 24 29 28 25 22 20 18 16 15 12 9 6 4
5 5 2 1 4 5 3 5 6 5 4 4 4 3 5 8 6 7 8 8 7 11 14 18 20 20 21 22 22 24 27 26 27 25 24 23 21 17 14 11 9 7 4 4
1 3 3 5 9 6 4 5 4 5 5 3 3 2 8 10 8 7 7 6 6 10 15 18 18 20 21 23 23 24 25 26 25 25 22 19 16 14 12 9 6 5 4 5
3 5 4 4 1 2 2 4 4 6 5 3 6 6 7 7 9 9 8 8 11 14 18 19 20 22 22 24 24 23 23 26 26 23 19 16 14 11 9 7 6 5 5 7
Wind_Direction
196 186 189 196 219 243 286 303 304 311 328 320 272 271 264 263 251 251 244 248 245 247 249 248 247 251 244 236 235 215 209 203 203 209 200 196 202 191 190 192 196 194 194 196
153 247 223 230 213 232 274 294 286 295 300 337 307 282 276 259 256 245 244 242 242 247 242 245 244 230 238 246 246 241 212 199 202 209 207 201 192 181 185 185 182 185 188 188
184 171 214 253 255 238 260 259 285 300 313 289 275 278 248 252 236 238 238 239 239 238 242 245 250 239 228 226 238 246 229 214 200 200 203 190 173 165 157 167 174 184 190 187
241 235 159 204 236 213 245 6 336 305 325 266 21 292 267 279 266 242 222 220 220 232 242 247 251 261 240 226 222 234 240 224 216 196 194 188 171 162 176 173 170 168 185 183
219 221 185 229 221 223 238 60 355 311 304 324 245 234 269 189 239 249 258 211 231 220 215 229 229 231 251 264 233 221 232 230 217 198 192 182 173 172 176 174 173 180 181 182
215 53 224 209 228 279 83 342 222 255 256 252 217 200 276 271 79 19 336 227 208 97 40 355 330 310 245 249 253 255 223 217 212 195 189 181 172 167 168 174 173 178 176 177
247 238 172 281 196 154 209 102 297 235 213 236 202 198 250 295 290 293 261 319 29 113 42 314 335 317 296 243 247 244 237 209 200 191 186 181 176 182 183 174 170 165 165 173
188 217 193 176 218 172 194 182 199 273 235 297 325 244 241 235 246 192 223 253 250 77 61 18 325 305 287 272 223 228 219 203 191 181 177 178 180 179 176 172 168 164 164 167
166 249 137 150 188 222 136 200 216 307 268 282 233 283 299 267 268 273 257 228 203 164 82 15 340 313 300 283 223 208 209 195 191 178 174 179 174 167 166 164 164 164 161 163
19 182 186 153 192 208 193 145 86 8 264 264 242 254 249 335 344 348 346 54 111 101 72 29 333 307 308 297 249 204 200 193 184 173 176 155 163 164 165 160 160 158 157 158
178 217 89 84 212 195 189 229 236 8 239 259 303 242 81 359 354 342 330 36 61 39 320 359 312 314 307 301 245 195 186 186 171 171 143 149 153 152 152 152 153 152 154 157
170 147 222 218 242 205 209 197 206 201 235 230 285 277 255 265 300 342 303 225 222 215 199 246 323 312 302 299 279 175 178 172 153 135 139 147 147 142 144 143 147 149 148 154
161 204 253 278 188 232 223 229 220 229 284 247 267 258 319 307 305 297 268 294 269 277 202 150 46 315 295 308 265 168 147 132 129 141 139 139 140 140 141 143 145 147 144 146
146 174 219 203 129 103 266 270 248 232 257 267 249 277 279 291 301 304 313 278 252 243 234 141 106 300 290 304 88 99 100 114 123 132 133 136 137 137 134 138 137 140 145 149
116 217 271 268 280 284 270 265 258 248 249 254 281 281 289 294 289 288 279 284 266 254 217 129 122 238 298 33 98 102 106 115 124 125 132 135 133 133 130 131 133 139 143 144
186 265 343 288 266 253 254 252 252 262 264 265 272 278 291 290 284 287 16 16 13 359 290 123 133 192 94 95 97 101 111 118 123 127 131 131 127 125 127 128 127 137 149 145
160 174 328 259 326 295 269 226 226 239 253 263 279 292 307 312 304 340 35 323 313 314 323 122 154 140 98 96 103 99 115 124 125 127 126 123 117 116 121 126 137 143 136 131
172 189 229 281 308 289 169 198 206 241 273 264 268 289 304 313 338 54 356 304 278 256 251 209 125 109 111 111 110 109 112 115 117 115 111 111 117 116 119 134 137 135 141 140
186 242 279 273 305 271 287 142 228 200 292 271 293 318 328 332 329 52 351 335 281 236 203 113 107 109 110 111 113 109 107 106 102 102 106 115 125 130 129 137 148 138 137 132
194 214 263 348 307 276 89 155 142 152 246 18 344 349 340 349 5 17 352 14 44 64 86 100 106 112 110 116 117 111 112 112 114 116 119 126 131 132 142 143 128 128 127 117
171 195 220 231 268 281 277 117 146 318 288 347 22 8 359 34 21 357 52 50 57 74 83 93 101 103 113 115 113 107 113 115 118 121 125 130 129 138 132 128 127 120 116 108
171 171 193 187 214 262 198 332 342 259 330 341 354 142 108 103 93 59 66 67 86 81 89 103 109 112 116 119 121 117 114 124 124 123 125 130 127 123 130 121 115 111 105 99
208 206 185 193 216 257 320 272 32 58 336 346 318 318 130 126 90 102 101 91 78 116 127 123 126 125 124 119 121 120 127 130 126 122 115 119 128 131 117 113 109 103 93 80
231 252 224 272 265 256 50 32 48 55 8 341 326 347 145 123 128 111 96 84 94 97 109 108 102 100 100 111 115 113 123 122 118 118 124 127 119 114 110 107 106 99 86 65
311 11 236 260 281 290 78 71 40 59 42 12 344 86 115 123 121 112 103 97 89 102 98 104 104 103 104 110 111 118 122 124 116 119 119 116 116 114 112 104 95 86 62 19
213 212 199 238 89 182 79 82 46 74 64 51 90 75 94 113 120 115 109 103 95 94 101 103 106 109 112 113 113 118 127 127 124 120 118 115 114 112 102 82 65 40 25 8